{"data":{"norad_id":66346,"intl_designator":"2025-253AD","name":"STARLINK-35482","alt_names":[],"object_type":"PAYLOAD","status":"ACTIVE","operator":null,"country":"US","launch_date":"2025-11-06","launch_site_code":"AFETR","launch_vehicle":null,"mission":null,"orbit_class":"UNKNOWN","rcs_meters":null,"size_class":null,"mass_kg":null,"dimensions":null,"purposes":["comms"],"wikipedia_slug":null,"has_3d_model":false,"image_url":null,"decayed_at":null,"tle_current":{"epoch":"2026-09-20T04:40:39.649440Z","epoch_age_seconds":119797,"freshness":"FRESH","line1":"1 66346U 25253AD  26263.19490335  .00015437  00000+0  56893-3 0  9998","line2":"2 66346  43.0028 193.8581 0001555 263.4663  96.6012 15.27601379 49991","mean_motion":15.27601379,"eccentricity":0.0001555,"inclination_deg":43.0028,"raan_deg":193.8581,"arg_perigee_deg":263.4663,"mean_anomaly_deg":96.6012,"bstar":0.00056893,"rev_number":4999,"period_min":94.265429437008,"perigee_km":481.9181758857,"apogee_km":484.0519848527,"semimajor_km":6861.1220803692,"source":"CELESTRAK","updated_at":"2026-09-21T09:00:35.878505Z"}}}